Location: Angwan Shehu
(11.2514°N, 7.4613°E)
Time: 05:28:22
(UTC+00:00)

SR - Pass Details

Date: 16 April 2021
Orbit: 573 x 882 km, 66.7° (Epoch: 12 May)

Event Time Altitude Azimuth Distance (km) Brightness Sun altitude
Rises 16:58:15 0° 359° (N) 3,345 ? 9.7°
Reaches altitude 10° 17:01:16 10° 14° (NNE) 2,362 ? 8.9°
Maximum altitude 17:05:28 23° 65° (ENE) 1,577 ? 7.9°
Drops below altitude 10° 17:09:25 10° 117° (ESE) 2,203 ? 7.0°
Sets 17:12:06 0° 131° (SE) 3,063 ? 6.3°
